一网星座-0533星 (ONEWEB-0533)

导读 | 豆包AI

ONEWEB-0533是英国OneWeb星座的低轨互联网卫星,于2023年1月10日由SpaceX猎鹰9号火箭发射升空。该卫星单颗重约148公斤,依靠太阳能供电,旨在推进OneWeb全球天基网络建设,助力实现全球无缝宽带覆盖。本次发射是SpaceX为OneWeb执行的第二次发射任务,也是OneWeb星座组网的第16次发射,推动该星座向600颗现役卫星的目标更进一步。

基本信息
目录编号:
55141
目录名称:
ONEWEB-0533
国际标识:
2023-004B
轨道中心:
EARTH
卫星名称:
一网星座-0533星
卫星全名:
一网星座-0533星 (ONEWEB-0533)
卫星状态:
在轨 (已飞行1180 天)
发射日期:
2023-01-10 UTC
国别 :
英国 (GB)
星等 :
--
轨道信息
数据来源 国际轨道数据 AOE轨道数据
星历时间 2026-04-04T01:52:47+0800
8小时前
查看轨道信息
2026-03-28T12:00:00+0800
6天前
查看轨道信息
半长轴 7591.855km 7591.863km
偏心率 0.0001697 0.0001406
轨道倾角 87.902° 87.901°
近地点辐角 83.846° 93.832°
升交点赤经 5.451° 6.754°
平近点角 276.286° 162.772°
近地点 1212.429km 1212.658km
远地点 1215.007km 1214.794km
周期 109.719分钟 109.719分钟
每日圈数 13.124444 13.124424
详细信息
平衡模式:
三轴稳定
覆盖范围:
全球
运营商:
一网卫星公司
运营商所在国:
英国
制造商(研发单位):
一网卫星公司
制造商所在国:
英国
使用方式:
暂无
卫星简介
OneWeb卫星网络由648颗重约125公斤的微型卫星组成,运行在1200公里的轨道上。 每颗卫星都能够提供至少每秒8千兆位的吞吐量,以使用其高吞吐量的Ku频段有效载荷为家庭和移动平台提供互联网接入。该卫星仍在工作。
2D轨道图
3D轨道图
轨道高度分析图
轨道倾角分析图
轨道综合分析图
查看轨道综合分析图